User: anonymous   Login
Location: Austin, TX
(30.3000°N, 97.7500°W)
Time: 05:31:31
(UTC-05:00)
Language:

Cosmos 2082 Rocket - Orbit

View from above orbital plane
View from above orbital plane
View from above satellite
View from above satellite

Ground track
Ground track

The orbit data is extracted from the following two-line orbital elements,

1 20625U 90046B   15116.23487035  .00000004  00000-0  26783-4 0  9994
2 20625 071.0001 352.3393 0015838 222.3628 277.2390 14.14567625287114
Epoch (UTC): 26 April 2015 05:38:12
Eccentricity: 0.0015838
inclination: 71.0001°
perigee height: 832 km
apogee height: 855 km
right ascension of ascending node: 352.3393°
argument of perigee: 222.3628°
revolutions per day: 14.14567625
mean anomaly at epoch: 277.2390°
orbit number at epoch: 28711

The dashed part of the orbit path shows where the satellite is in the earth's shadow,  

DLR